Location: ???????
(38.0688°N, 23.1669°E)
Time: 22:00:35
(UTC+00:00)

Daily predictions for brighter satellites

Satellite Brightness Start Highest point End
(mag) Time Altitude Azimuth Time Altitude Azimuth Time Altitude Azimuth
Hubble Space Telescope 3.7 15:37:35 10° SW 15:38:46 11° SSW 15:39:58 10° S
Cosmos 2251 Rocket 4.4 15:37:46 10° N 15:42:20 28° ENE 15:46:54 10° ESE
ISS -3.5 15:43:45 10° NW 15:47:00 47° NE 15:50:14 10° ESE
Lacrosse 5 2.2 15:42:42 10° SSW 15:47:34 52° SE 15:52:28 10° NE
Cosmos-2242 3.0 15:47:16 10° S 15:51:33 66° E 15:55:52 10° NNE
Meteor 2-2 Rocket 4.5 15:49:24 10° SSE 15:54:54 50° E 16:00:31 10° NNE
Cosmos 2151 4.2 15:51:05 10° NNW 15:55:10 46° W 15:59:13 10° SSW
USA 234 3.3 15:50:54 10° NE 15:57:28 88° SE 16:04:01 10° SW
COSMO-SKYMED 1 3.4 15:53:44 10° NE 15:57:34 30° E 16:01:24 10° SSE
Lacrosse 4 Rocket 1.9 15:55:01 10° N 15:59:03 38° ENE 16:02:58 10° SE
Cosmos 2026 Rocket 4.4 15:54:34 10° SSE 16:00:20 41° E 16:06:12 10° NNE
Cosmos 1818 3.6 15:56:48 10° SSW 16:02:13 85° ESE 16:07:42 10° NNE
Cosmos 2221 3.8 15:59:12 10° SE 16:02:16 20° E 16:04:18 14° NE
Meteor 1-25 Rocket 4.4 15:57:13 10° N 16:02:39 47° ENE 16:07:59 10° SSE
APEX 3.1 15:59:36 10° SW 16:02:40 58° WNW 16:05:29 10° NNE
Cosmos 1023 Rocket 4.5 15:58:59 10° N 16:04:03 57° ENE 16:09:02 10° SSE
CZ-2C R/B 2.9 16:03:13 10° SW 16:04:37 14° SSW 16:06:00 10° SSE
Cosmos 1812 2.7 16:03:19 10° S 16:06:59 80° W 16:10:40 10° N
AQUARIUS 4.1 16:05:31 10° SSE 16:09:58 87° E 16:14:27 10° NNW
CZ-2C R/B 4.3 16:09:29 10° SSW 16:12:44 35° W 16:16:04 10° NNW
Cosmos 1844 Rocket 2.8 16:09:52 10° S 16:15:15 54° ESE 16:20:21 12° NNE
Cosmos 2263 Rocket 3.9 16:10:38 10° WSW 16:15:24 29° WNW 16:20:12 10° N
Cosmos 1092 Rocket 4.0 16:11:41 10° S 16:17:40 60° E 16:23:42 10° NNE
Nadezhda 4 Rocket 4.3 16:11:42 10° SSW 16:17:49 71° W 16:23:57 10° N
Cosmos 1420 Rocket 4.2 16:18:55 10° S 16:23:57 52° ESE 16:28:11 15° NNE
ADEOS 4.0 16:22:35 10° SE 16:27:22 38° ENE 16:32:09 10° N
[s.n.58448] 2.2 16:25:03 10° WNW 16:27:37 82° NNE 16:28:02 57° E
USA 307 2.5 16:24:24 10° NW 16:28:15 67° NE 16:30:26 23° ESE
Cosmos 1933 3.2 16:24:22 10° S 16:28:20 71° E 16:32:19 10° NNE
BREEZE-M R/B 4.5 16:23:02 10° SW 16:28:42 81° SE 16:36:05 18° NE
Cosmos 1766 Rocket 4.3 16:25:33 10° NNE 16:29:21 29° ENE 16:33:05 10° SE
[s.n.58449] 2.1 16:27:42 10° WNW 16:30:13 86° NNE 16:30:27 71° E
Meteor 1-20 Rocket 4.3 16:25:12 10° NNW 16:30:48 80° W 16:36:29 10° S
[s.n.58459] 2.2 16:28:47 10° WNW 16:31:23 88° N 16:31:40 68° ESE
Cosmos 1140 Rocket 3.5 16:26:28 10° NNW 16:31:39 82° WSW 16:36:46 10° SSE
Cosmos 1624 Rocket 4.1 16:26:38 10° S 16:31:43 55° ESE 16:35:20 19° NNE
[s.n.58458] 2.2 16:29:30 10° WNW 16:32:06 89° N 16:32:21 69° ESE
[s.n.58456] 2.2 16:30:20 10° WNW 16:32:56 90° WSW 16:33:09 72° ESE
[s.n.58447] 2.1 16:30:39 10° WNW 16:33:13 89° SSW 16:33:23 77° ESE
[s.n.58457] 2.2 16:31:05 10° WNW 16:33:41 88° SW 16:33:52 75° ESE
[s.n.58455] 2.2 16:31:51 10° WNW 16:34:28 87° SSW 16:34:37 77° SE
[s.n.58454] 2.2 16:32:37 10° WNW 16:35:14 86° SSW 16:35:21 79° SE
[s.n.58453] 2.2 16:33:24 10° WNW 16:36:01 85° SSW 16:36:06 81° SSE
[s.n.58452] 2.2 16:34:07 10° WNW 16:36:44 84° SSW 16:36:48 82° SSE
[s.n.58451] 2.3 16:34:54 10° WNW 16:37:31 82° SSW 16:37:32 82° S
CBERS 1 LM4 rocket 4.2 16:32:50 10° SSE 16:37:39 75° ENE 16:42:23 10° N
[s.n.58450] 2.3 16:35:40 10° WNW 16:38:16 81° SSW 16:38:16 81° SSW
[s.n.58446] 2.4 16:37:57 10° WNW 16:40:29 75° WSW 16:40:29 75° WSW
[s.n.58445] 2.5 16:38:45 10° WNW 16:41:14 72° WSW 16:41:14 72° WSW
Cosmos 1603 3.6 16:36:12 10° NNW 16:41:54 81° ENE 16:47:31 10° SSE
[s.n.58444] 2.6 16:39:32 10° WNW 16:41:59 70° WSW 16:41:59 70° WSW
[s.n.58443] 2.6 16:40:17 10° WNW 16:42:42 68° WSW 16:42:42 68° WSW
[s.n.58442] 2.7 16:41:07 10° WNW 16:43:30 65° WSW 16:43:30 65° WSW
[s.n.58441] 2.8 16:41:55 10° WNW 16:44:16 63° WSW 16:44:16 63° WSW
[s.n.58440] 2.8 16:42:38 10° WNW 16:44:58 61° WSW 16:44:58 61° WSW
Cosmos 192 4.4 16:40:41 10° SSW 16:45:33 75° WNW 16:49:36 15° NNE
SKYMED 2 3.7 16:41:24 10° N 16:45:44 74° WNW 16:50:02 10° SSW
[s.n.58439] 2.9 16:43:26 10° WNW 16:45:44 59° WSW 16:45:44 59° WSW
[s.n.58437] 3.0 16:44:12 10° WNW 16:46:28 57° WSW 16:46:28 57° WSW
[s.n.58438] 3.1 16:44:58 10° WNW 16:47:13 55° WSW 16:47:13 55° WSW
SL-08 R/B 3.1 16:46:50 16° NNE 16:50:31 84° ESE 16:55:11 10° SSW
USA 306 3.9 16:49:08 10° WNW 16:50:22 21° WSW 16:50:22 21° WSW
CZ-4B R/B 4.1 16:50:15 10° S 16:55:16 57° WSW 17:00:11 10° NNW
ATLAS CENTAUR R/B 3.3 16:50:01 10° NW 16:55:22 84° SW 17:06:00 10° SE
EO 1 Delta rocket 4.5 16:49:15 10° SSE 16:56:19 64° ENE 17:01:52 10° N
Cosmos 1782 4.2 16:55:16 10° SSW 16:58:55 37° WNW 17:02:34 10° N
SL-8 R/B 3.6 16:54:40 10° WNW 16:59:28 85° SW 17:01:00 44° SE
USA 305 2.6 16:56:10 10° NW 17:00:01 76° SW 17:00:25 66° S
NOAA 6 4.4 16:58:00 10° S 17:03:05 64° WSW 17:08:11 10° NNW
Cosmos 1515 3.8 16:59:57 10° S 17:02:50 57° S 17:02:50 57° S
Cosmos 1943 4.4 17:00:23 10° NW 17:05:39 42° WSW 17:10:54 10° S
ATLAS 2AS CENTAUR R/B 2.8 17:02:04 10° NNW 17:08:37 46° NE 17:09:08 45° ENE
Radarsat Rocket 4.3 17:03:44 10° S 17:09:29 65° WSW 17:15:26 10° NNW
CZ-4B DEB 4.2 17:05:55 10° SSE 17:11:18 57° ENE 17:16:44 10° N
ISS -1.0 17:21:16 10° W 17:23:27 16° SW 17:24:34 14° SSW
SME Rocket 3.9 17:18:44 10° SSE 17:23:50 84° ENE 17:31:43 10° NNW
SL-4 R/B 4.1 17:22:19 10° SSW 17:23:04 16° SSW 17:23:04 16° SSW
Cosmos 2056 Rocket 4.5 17:20:28 10° SW 17:25:36 46° WNW 17:28:45 22° N
COSMOS 2455 2.7 17:20:18 10° SSW 17:26:17 84° ESE 17:27:02 70° NE
Lacrosse 5 3.3 17:26:25 10° W 17:30:45 28° NW 17:31:43 26° NNW
Cosmos 1954 Rocket 4.0 17:26:23 10° NNW 17:31:28 80° WNW 17:31:28 80° WNW
Lacrosse 4 Rocket 4.2 17:34:18 10° WNW 17:37:06 17° WSW 17:39:52 10° SSW
SEDSat Delta rocket 4.4 17:32:29 10° WSW 17:36:53 35° SSW 17:36:53 35° SSW
Cosmos 2221 4.4 17:35:47 10° SW 17:39:26 28° WNW 17:41:02 22° NW
Cosmos 1553 Rocket 4.2 17:36:34 10° NNW 17:42:48 67° W 17:48:53 10° S
H-2A R/B 4.3 17:57:46 10° WSW 18:01:43 24° S 18:02:44 23° S
ATLAS 2AS CENTAUR R/B 4.5 18:53:25 10° NW 18:56:38 24° WNW 18:56:38 24° WNW
